Tracking 24122 objects as of 9-Dec-2021
HD Live streaming from Space Station
objects crossing your sky now

OPS 4682 DEB

Track OPS 4682 DEB now!
10-day predictions


NORAD ID: 38417
Int'l Code: 1965-027DW
Perigee: 1,260.4 km
Apogee: 1,312.0 km
Inclination: 90.3 °
Period: 111.1 minutes
Semi major axis: 7657 km
RCS: 0.012 m2 (small)
Launch date: April 3, 1965
Source: United States (US)
Launch site: AIR FORCE WESTERN TEST RANGE (AFWTR)

Note: This is SATELLITE DEBRIS
aabbcc
Your satellite tracking list
Your tracking list is empty




NASA's NSSDC Master Catalog

Two Line Element Set (TLE):
1 38417U 65027DW  21342.44877246  .00000244  00000-0  83470-3 0  9992
2 38417  90.2656 334.4476 0033739 160.7600 199.4802 12.95677474392716
Source of the keplerian elements: AFSPC